Location: Agendoh
(31.0664°N, 8.9343°W)
Time: 08:47:54
(UTC+00:00)

Cosmos 1766 Rocket - Pass Details

Date: 06 December 2021
Orbit: 606 x 631 km, 82.5° (Epoch: 24 January)

Event Time Altitude Azimuth Distance (km) Brightness Sun altitude
Rises 05:47:20 0° 198° (SSW) 2,859 6.9 -19.5°
Reaches altitude 10° 05:49:37 10° 205° (SSW) 1,955 6.0 -19.0°
Maximum altitude 05:53:45 45° 278° (W) 828 3.7 -18.1°
Drops below altitude 10° 05:57:55 10° 352° (N) 1,959 5.9 -17.3°
Sets 06:00:13 0° 359° (N) 2,865 6.8 -16.8°
